When you browse on this site, cookies collect data to enhance your experience and personalize the content and advertising you see.
Visit our Privacy Policy to learn more. By continuing to use the site, you agree to this use of cookies and data.
  • In Portugal
  • List of Countries
  • For 7 days
  • Water Temperature
  • Weather Map
  • Weather Widgets
  • user-avatar
    Login

    Hourly Weather Sagaleipie

    Today, 10 April, Friday

    Time Temperature Precipitation Wind Pressure Humidity
    00:00 +22°C° 0 mm 0 mps 722 mmHg 93%
    01:00 +22°C° 0 mm 0 mps 721 mmHg 94%
    02:00 +22°C° 0 mm 0 mps 721 mmHg 95%
    03:00 +21°C° 0 mm 0 mps 721 mmHg 96%
    04:00 +21°C° 0 mm 0 mps 721 mmHg 97%
    05:00 +21°C° 0 mm 0 mps 721 mmHg 98%
    06:00 +23°C° 0 mm 0 mps 722 mmHg 92%
    07:00 +26°C° 0 mm 1 mps 723 mmHg 87%
    08:00 +27°C° 0 mm 1 mps 724 mmHg 81%
    09:00 +30°C° 0 mm 1 mps 723 mmHg 70%
    10:00 +33°C° 0 mm 1 mps 723 mmHg 59%
    11:00 +36°C° 0 mm 1 mps 723 mmHg 47%
    12:00 +36°C° 0 mm 1 mps 722 mmHg 45%
    13:00 +36°C° 0 mm 1 mps 721 mmHg 43%
    14:00 +36°C° 0 mm 1 mps 720 mmHg 41%
    15:00 +34°C° 0.8 mm 1 mps 720 mmHg 52%
    16:00 +31°C° 0.8 mm 1 mps 720 mmHg 63%
    17:00 +29°C° 0.8 mm 2 mps 720 mmHg 74%
    18:00 +27°C° 0.9 mm 1 mps 721 mmHg 79%
    19:00 +26°C° 0.9 mm 1 mps 722 mmHg 85%
    20:00 +25°C° 0.9 mm 1 mps 722 mmHg 90%
    21:00 +25°C° 1.6 mm 1 mps 722 mmHg 93%
    22:00 +24°C° 1.6 mm 1 mps 723 mmHg 95%
    23:00 +22°C° 1.6 mm 0 mps 723 mmHg 98%

    Tomorrow, 11 April, Saturday

    Time Temperature Precipitation Wind Pressure Humidity
    00:00 +22°C° 0.2 mm 0 mps 723 mmHg 98%
    01:00 +22°C° 0.2 mm 0 mps 722 mmHg 98%
    02:00 +22°C° 0.2 mm 0 mps 722 mmHg 99%
    03:00 +22°C° 0.2 mm 0 mps 722 mmHg 99%
    04:00 +22°C° 0.2 mm 0 mps 722 mmHg 98%
    05:00 +21°C° 0.2 mm 0 mps 723 mmHg 98%
    06:00 +22°C° 0.1 mm 0 mps 723 mmHg 96%
    07:00 +23°C° 0.1 mm 0 mps 724 mmHg 94%
    08:00 +24°C° 0.1 mm 0 mps 724 mmHg 91%
    09:00 +28°C° 0 mm 1 mps 724 mmHg 81%
    10:00 +30°C° 0 mm 1 mps 724 mmHg 71%
    11:00 +32°C° 0 mm 1 mps 724 mmHg 60%
    12:00 +33°C° 0 mm 1 mps 723 mmHg 56%
    13:00 +34°C° 0 mm 1 mps 722 mmHg 51%
    14:00 +35°C° 0 mm 1 mps 722 mmHg 46%
    15:00 +33°C° 0.5 mm 1 mps 721 mmHg 57%
    16:00 +31°C° 0.5 mm 1 mps 721 mmHg 68%
    17:00 +28°C° 0.5 mm 1 mps 721 mmHg 79%
    18:00 +27°C° 0.3 mm 1 mps 722 mmHg 83%
    19:00 +26°C° 0.3 mm 1 mps 723 mmHg 87%
    20:00 +25°C° 0.3 mm 1 mps 723 mmHg 91%
    21:00 +25°C° 0 mm 1 mps 723 mmHg 93%
    22:00 +25°C° 0 mm 1 mps 723 mmHg 94%
    23:00 +22°C° 0 mm 0 mps 723 mmHg 96%

    Day after tomorrow, 12 April, Sunday

    Time Temperature Precipitation Wind Pressure Humidity
    00:00 +22°C° 0 mm 0 mps 723 mmHg 96%
    01:00 +22°C° 0 mm 0 mps 722 mmHg 97%
    02:00 +22°C° 0 mm 0 mps 722 mmHg 98%
    03:00 +22°C° 0 mm 0 mps 722 mmHg 98%
    04:00 +22°C° 0 mm 0 mps 722 mmHg 98%
    05:00 +21°C° 0 mm 0 mps 722 mmHg 98%
    06:00 +23°C° 0 mm 0 mps 723 mmHg 91%
    07:00 +25°C° 0 mm 0 mps 724 mmHg 84%
    08:00 +29°C° 0 mm 1 mps 724 mmHg 77%
    09:00 +29°C° 0 mm 0 mps 724 mmHg 66%
    10:00 +32°C° 0 mm 0 mps 724 mmHg 56%
    11:00 +35°C° 0 mm 0 mps 723 mmHg 45%
    12:00 +33°C° 1 mm 0 mps 722 mmHg 50%
    13:00 +32°C° 1 mm 0 mps 722 mmHg 56%
    14:00 +32°C° 1 mm 1 mps 721 mmHg 61%
    15:00 +32°C° 0.1 mm 1 mps 721 mmHg 63%
    16:00 +31°C° 0.1 mm 1 mps 721 mmHg 64%
    17:00 +31°C° 0.1 mm 1 mps 721 mmHg 66%
    18:00 +29°C° 1.5 mm 1 mps 722 mmHg 75%
    19:00 +27°C° 1.5 mm 2 mps 722 mmHg 85%
    20:00 +25°C° 1.5 mm 2 mps 723 mmHg 94%
    21:00 +25°C° 0.7 mm 2 mps 723 mmHg 95%
    22:00 +24°C° 0.7 mm 1 mps 723 mmHg 96%
    23:00 +22°C° 0.7 mm 0 mps 723 mmHg 97%

    13 April, Monday

    Time Temperature Precipitation Wind Pressure Humidity
    00:00 +22°C° 0 mm 0 mps 722 mmHg 97%
    01:00 +22°C° 0 mm 0 mps 722 mmHg 97%
    02:00 +22°C° 0 mm 0 mps 721 mmHg 97%
    03:00 +22°C° 0 mm 0 mps 721 mmHg 97%
    04:00 +22°C° 0 mm 0 mps 722 mmHg 98%
    05:00 +22°C° 0 mm 0 mps 722 mmHg 98%
    06:00 +23°C° 0 mm 0 mps 722 mmHg 93%
    07:00 +24°C° 0 mm 0 mps 723 mmHg 88%
    08:00 +26°C° 0 mm 0 mps 723 mmHg 82%
    09:00 +30°C° 0 mm 1 mps 723 mmHg 71%
    10:00 +32°C° 0 mm 1 mps 723 mmHg 60%
    11:00 +34°C° 0 mm 1 mps 723 mmHg 49%
    12:00 +35°C° 0 mm 1 mps 722 mmHg 46%
    13:00 +35°C° 0 mm 1 mps 721 mmHg 43%
    14:00 +35°C° 0 mm 1 mps 720 mmHg 40%
    15:00 +34°C° 0 mm 1 mps 720 mmHg 45%
    16:00 +33°C° 0 mm 1 mps 720 mmHg 51%
    17:00 +32°C° 0 mm 1 mps 720 mmHg 57%
    18:00 +30°C° 0 mm 1 mps 721 mmHg 63%
    19:00 +28°C° 0 mm 1 mps 721 mmHg 69%
    20:00 +25°C° 0 mm 0 mps 721 mmHg 75%
    21:00 +24°C° 0.2 mm 0 mps 722 mmHg 80%
    22:00 +23°C° 0.2 mm 0 mps 722 mmHg 86%
    23:00 +23°C° 0.2 mm 0 mps 722 mmHg 92%

    14 April, Tuesday

    Time Temperature Precipitation Wind Pressure Humidity
    00:00 +22°C° 0 mm 0 mps 722 mmHg 94%
    01:00 +22°C° 0 mm 0 mps 721 mmHg 96%
    02:00 +22°C° 0 mm 0 mps 721 mmHg 98%
    03:00 +22°C° 0 mm 0 mps 721 mmHg 98%
    04:00 +22°C° 0 mm 0 mps 721 mmHg 98%
    05:00 +22°C° 0 mm 0 mps 721 mmHg 98%
    06:00 +23°C° 0 mm 0 mps 722 mmHg 93%
    07:00 +26°C° 0 mm 1 mps 722 mmHg 87%
    08:00 +28°C° 0 mm 1 mps 723 mmHg 81%
    09:00 +30°C° 0 mm 1 mps 723 mmHg 72%
    10:00 +32°C° 0 mm 1 mps 723 mmHg 62%
    11:00 +34°C° 0 mm 1 mps 723 mmHg 52%
    12:00 +35°C° 0.1 mm 1 mps 722 mmHg 49%
    13:00 +35°C° 0.1 mm 1 mps 721 mmHg 47%
    14:00 +35°C° 0.1 mm 1 mps 721 mmHg 45%
    15:00 +33°C° 0.6 mm 1 mps 721 mmHg 56%
    16:00 +31°C° 0.6 mm 1 mps 721 mmHg 67%
    17:00 +28°C° 0.6 mm 1 mps 720 mmHg 79%
    18:00 +27°C° 1.7 mm 1 mps 721 mmHg 84%
    19:00 +26°C° 1.7 mm 1 mps 721 mmHg 89%
    20:00 +25°C° 1.7 mm 1 mps 722 mmHg 94%
    21:00 +25°C° 0.1 mm 1 mps 722 mmHg 94%
    22:00 +23°C° 0.1 mm 0 mps 722 mmHg 95%
    23:00 +22°C° 0.1 mm 0 mps 722 mmHg 96%

    15 April, Wednesday

    Time Temperature Precipitation Wind Pressure Humidity
    00:00 +22°C° 0 mm 0 mps 722 mmHg 97%
    01:00 +22°C° 0 mm 0 mps 722 mmHg 97%
    02:00 +22°C° 0 mm 0 mps 721 mmHg 98%
    03:00 +22°C° 0 mm 0 mps 721 mmHg 98%
    04:00 +22°C° 0 mm 0 mps 721 mmHg 98%
    05:00 +22°C° 0 mm 0 mps 721 mmHg 98%
    06:00 +23°C° 0 mm 0 mps 722 mmHg 92%
    07:00 +25°C° 0 mm 0 mps 723 mmHg 85%
    08:00 +27°C° 0 mm 0 mps 723 mmHg 79%
    09:00 +30°C° 0 mm 0 mps 723 mmHg 67%
    10:00 +32°C° 0 mm 0 mps 723 mmHg 56%
    11:00 +35°C° 0 mm 0 mps 723 mmHg 45%
    12:00 +34°C° 0.3 mm 0 mps 722 mmHg 46%
    13:00 +34°C° 0.3 mm 0 mps 721 mmHg 48%
    14:00 +33°C° 0.3 mm 0 mps 720 mmHg 50%
    15:00 +32°C° 0.1 mm 0 mps 720 mmHg 55%
    16:00 +30°C° 0.1 mm 0 mps 720 mmHg 61%
    17:00 +31°C° 0.1 mm 1 mps 720 mmHg 67%
    18:00 +27°C° 0.6 mm 0 mps 721 mmHg 74%
    19:00 +26°C° 0.6 mm 0 mps 721 mmHg 82%
    20:00 +24°C° 0.6 mm 0 mps 722 mmHg 89%
    21:00 +24°C° 1.5 mm 0 mps 722 mmHg 92%
    22:00 +23°C° 1.5 mm 0 mps 722 mmHg 94%
    23:00 +23°C° 1.5 mm 0 mps 723 mmHg 97%
    Show more